Location: A�t Bou Chrif
(32.7193°N, 5.2385°W)
Time: 02:55:46
(UTC+00:00)

Cosmos 1302 Rocket - Pass Details

Date: 08 August 2020
Orbit: 756 x 776 km, 74.0° (Epoch: 20 September)

Event Time Altitude Azimuth Distance (km) Brightness Sun altitude
Rises 19:37:23 0° 344° (NNW) 3,219 7.8 -5.7°
Reaches altitude 10° 19:39:45 10° 346° (NNW) 2,293 7.0 -6.1°
Maximum altitude 19:44:58 80° 73° (ENE) 776 4.0 -7.1°
Drops below altitude 10° 19:50:10 10° 161° (SSE) 2,291 6.1 -8.1°
Sets 19:52:32 0° 162° (SSE) 3,217 6.8 -8.6°
